Time,TemperatureF,DewpointF,PressureIn,WindDirection,WindDirectionDegrees,WindSpeedMPH,WindSpeedGustMPH,Humidity,HourlyPrecipIn,Conditions,Clouds,dailyrainin,SoftwareType,DateUTC
2013-04-11 00:10:00,34.5,25.0,30.07,North,7,5.0,7.0,68,0.00,,,0.00,weatherlink.com 1.10,2013-04-11 04:10:00,
2013-04-11 00:25:00,34.5,25.0,30.08,NNE,12,3.0,5.0,67,0.00,,,0.00,weatherlink.com 1.10,2013-04-11 04:25:00,
2013-04-11 00:40:00,34.9,23.0,30.07,North,9,8.0,18.0,61,0.00,,,0.00,weatherlink.com 1.10,2013-04-11 04:40:00,
2013-04-11 00:55:00,34.9,22.0,30.06,NNE,29,11.0,17.0,59,0.00,,,0.00,weatherlink.com 1.10,2013-04-11 04:55:00,
2013-04-11 01:10:00,34.1,23.0,30.07,NNE,16,9.0,13.0,64,0.00,,,0.00,weatherlink.com 1.10,2013-04-11 05:10:00,
2013-04-11 01:25:00,33.7,21.0,30.08,NNE,18,12.0,16.0,61,0.00,,,0.00,weatherlink.com 1.10,2013-04-11 05:25:00,
2013-04-11 01:40:00,33.3,22.0,30.08,North,11,8.0,13.0,64,0.00,,,0.00,weatherlink.com 1.10,2013-04-11 05:40:00,
2013-04-11 01:55:00,32.8,23.0,30.08,North,9,6.0,10.0,67,0.00,,,0.00,weatherlink.com 1.10,2013-04-11 05:55:00,
2013-04-11 02:10:00,32.4,23.0,30.08,NNE,15,8.0,10.0,67,0.00,,,0.00,weatherlink.com 1.10,2013-04-11 06:10:00,
2013-04-11 02:26:00,32.0,22.0,30.07,NNE,25,4.0,7.0,66,0.00,,,0.00,weatherlink.com 1.10,2013-04-11 06:26:00,
2013-04-11 02:41:00,31.7,21.0,30.06,NE,34,11.0,11.0,66,0.00,,,0.00,weatherlink.com 1.10,2013-04-11 06:41:00,
2013-04-11 02:56:00,31.4,20.0,30.05,NE,37,7.0,11.0,64,0.00,,,0.00,weatherlink.com 1.10,2013-04-11 06:56:00,
2013-04-11 03:11:00,31.3,19.0,30.06,NE,47,12.0,15.0,61,0.00,,,0.00,weatherlink.com 1.10,2013-04-11 07:11:00,
2013-04-11 03:26:00,31.0,20.0,30.05,NNE,30,10.0,12.0,63,0.00,,,0.00,weatherlink.com 1.10,2013-04-11 07:26:00,
2013-04-11 04:26:00,29.8,19.0,30.05,NNE,27,8.0,15.0,64,0.00,,,0.00,weatherlink.com 1.10,2013-04-11 08:26:00,
2013-04-11 04:41:00,29.4,17.0,30.05,NE,47,15.0,21.0,59,0.00,,,0.00,weatherlink.com 1.10,2013-04-11 08:41:00,
2013-04-11 04:56:00,29.0,15.0,30.05,NE,40,13.0,19.0,57,0.00,,,0.00,weatherlink.com 1.10,2013-04-11 08:56:00,
2013-04-11 05:11:00,28.7,15.0,30.06,NE,53,8.0,13.0,56,0.00,,,0.00,weatherlink.com 1.10,2013-04-11 09:11:00,
2013-04-11 05:26:00,28.4,15.0,30.07,NE,44,8.0,13.0,57,0.00,,,0.00,weatherlink.com 1.10,2013-04-11 09:26:00,
2013-04-11 05:41:00,28.2,15.0,30.09,NE,50,12.0,18.0,57,0.00,,,0.00,weatherlink.com 1.10,2013-04-11 09:41:00,
2013-04-11 05:56:00,27.8,15.0,30.09,NE,40,8.0,9.0,58,0.00,,,0.00,weatherlink.com 1.10,2013-04-11 09:56:00,
2013-04-11 06:26:00,27.5,14.0,30.09,NE,50,5.0,10.0,58,0.00,,,0.00,weatherlink.com 1.10,2013-04-11 10:26:00,
2013-04-11 06:41:00,27.2,14.0,30.10,NE,56,10.0,10.0,58,0.00,,,0.00,weatherlink.com 1.10,2013-04-11 10:41:00,
2013-04-11 06:56:00,27.0,14.0,30.10,NE,53,10.0,14.0,58,0.00,,,0.00,weatherlink.com 1.10,2013-04-11 10:56:00,
2013-04-11 07:11:00,26.7,14.0,30.09,ENE,69,13.0,16.0,58,0.00,,,0.00,weatherlink.com 1.10,2013-04-11 11:11:00,
2013-04-11 07:26:00,26.6,13.0,30.10,ENE,66,16.0,16.0,58,0.00,,,0.00,weatherlink.com 1.10,2013-04-11 11:26:00,
2013-04-11 07:41:00,26.4,13.0,30.10,NE,51,10.0,13.0,57,0.00,,,0.00,weatherlink.com 1.10,2013-04-11 11:41:00,
2013-04-11 07:56:00,26.2,13.0,30.10,ENE,63,9.0,17.0,57,0.00,,,0.00,weatherlink.com 1.10,2013-04-11 11:56:00,
2013-04-11 08:11:00,26.2,13.0,30.10,NE,48,11.0,12.0,58,0.00,,,0.00,weatherlink.com 1.10,2013-04-11 12:11:00,
2013-04-11 08:26:00,26.0,13.0,30.09,ENE,63,16.0,18.0,57,0.00,,,0.00,weatherlink.com 1.10,2013-04-11 12:26:00,
2013-04-11 08:41:00,25.8,12.0,30.07,NNE,33,10.0,21.0,57,0.00,,,0.00,weatherlink.com 1.10,2013-04-11 12:41:00,
2013-04-11 08:56:00,25.8,13.0,30.08,NE,46,8.0,16.0,58,0.00,,,0.00,weatherlink.com 1.10,2013-04-11 12:56:00,
2013-04-11 09:26:00,26.5,12.0,30.12,ENE,72,10.0,11.0,55,0.00,,,0.00,weatherlink.com 1.10,2013-04-11 13:26:00,
2013-04-11 09:42:00,26.8,12.0,30.11,ENE,61,9.0,12.0,54,0.00,,,0.00,weatherlink.com 1.10,2013-04-11 13:42:00,
2013-04-11 09:57:00,26.8,12.0,30.10,ENE,58,10.0,14.0,54,0.00,,,0.00,weatherlink.com 1.10,2013-04-11 13:57:00,
2013-04-11 10:12:00,26.8,12.0,30.09,East,84,7.0,14.0,55,0.00,,,0.00,weatherlink.com 1.10,2013-04-11 14:12:00,
2013-04-11 10:27:00,27.2,12.0,30.08,NE,38,8.0,15.0,54,0.00,,,0.00,weatherlink.com 1.10,2013-04-11 14:27:00,
2013-04-11 10:42:00,27.6,12.0,30.08,ENE,65,15.0,16.0,53,0.00,,,0.00,weatherlink.com 1.10,2013-04-11 14:42:00,
2013-04-11 10:57:00,27.7,13.0,30.06,ENE,74,12.0,18.0,55,0.00,,,0.00,weatherlink.com 1.10,2013-04-11 14:57:00,
2013-04-11 11:12:00,27.9,13.0,30.06,ENE,70,9.0,16.0,53,0.00,,,0.00,weatherlink.com 1.10,2013-04-11 15:12:00,
2013-04-11 11:27:00,28.5,14.0,30.05,ENE,57,14.0,14.0,55,0.00,,,0.00,weatherlink.com 1.10,2013-04-11 15:27:00,
2013-04-11 11:42:00,28.9,13.0,30.07,ENE,68,11.0,16.0,52,0.00,,,0.00,weatherlink.com 1.10,2013-04-11 15:42:00,
2013-04-11 11:57:00,29.4,13.0,30.07,ENE,75,8.0,15.0,51,0.00,,,0.00,weatherlink.com 1.10,2013-04-11 15:57:00,
2013-04-11 12:12:00,29.9,14.0,30.08,ENE,72,14.0,16.0,51,0.00,,,0.00,weatherlink.com 1.10,2013-04-11 16:12:00,
2013-04-11 12:27:00,30.0,14.0,30.07,ENE,65,9.0,14.0,52,0.00,,,0.00,weatherlink.com 1.10,2013-04-11 16:27:00,
2013-04-11 12:42:00,30.6,14.0,30.07,NE,53,12.0,18.0,51,0.00,,,0.00,weatherlink.com 1.10,2013-04-11 16:42:00,
2013-04-11 12:57:00,30.9,15.0,30.05,ENE,63,9.0,20.0,51,0.00,,,0.00,weatherlink.com 1.10,2013-04-11 16:57:00,
2013-04-11 13:12:00,31.2,14.0,30.04,NE,49,11.0,17.0,49,0.00,,,0.00,weatherlink.com 1.10,2013-04-11 17:12:00,
2013-04-11 13:27:00,32.0,14.0,30.05,NE,52,11.0,17.0,47,0.00,,,0.00,weatherlink.com 1.10,2013-04-11 17:27:00,
2013-04-11 13:42:00,32.2,14.0,30.03,East,79,10.0,18.0,48,0.00,,,0.00,weatherlink.com 1.10,2013-04-11 17:42:00,
2013-04-11 13:57:00,32.3,14.0,30.03,East,85,9.0,17.0,47,0.00,,,0.00,weatherlink.com 1.10,2013-04-11 17:57:00,
2013-04-11 14:12:00,32.3,14.0,30.01,ENE,72,17.0,24.0,48,0.00,,,0.00,weatherlink.com 1.10,2013-04-11 18:12:00,
2013-04-11 14:27:00,32.5,16.0,30.00,ENE,68,10.0,22.0,50,0.00,,,0.00,weatherlink.com 1.10,2013-04-11 18:27:00,
2013-04-11 14:57:00,33.7,16.0,30.01,ENE,69,13.0,16.0,49,0.00,,,0.00,weatherlink.com 1.10,2013-04-11 18:57:00,
2013-04-11 15:12:00,33.6,17.0,30.02,ENE,75,12.0,17.0,50,0.00,,,0.00,weatherlink.com 1.10,2013-04-11 19:12:00,
2013-04-11 15:27:00,33.7,17.0,30.00,ENE,77,11.0,14.0,51,0.00,,,0.00,weatherlink.com 1.10,2013-04-11 19:27:00,
2013-04-11 15:42:00,34.2,17.0,29.99,ENE,65,11.0,18.0,50,0.00,,,0.00,weatherlink.com 1.10,2013-04-11 19:42:00,
2013-04-11 15:57:00,34.4,16.0,29.98,East,81,13.0,18.0,48,0.00,,,0.00,weatherlink.com 1.10,2013-04-11 19:57:00,
2013-04-11 16:12:00,34.4,17.0,29.97,ENE,58,13.0,16.0,50,0.00,,,0.00,weatherlink.com 1.10,2013-04-11 20:12:00,
2013-04-11 16:27:00,34.8,19.0,29.97,East,82,8.0,17.0,52,0.00,,,0.00,weatherlink.com 1.10,2013-04-11 20:27:00,
2013-04-11 16:42:00,34.8,18.0,29.97,East,87,13.0,16.0,50,0.00,,,0.00,weatherlink.com 1.10,2013-04-11 20:42:00,
2013-04-11 16:57:00,35.2,17.0,29.97,East,79,9.0,13.0,48,0.00,,,0.00,weatherlink.com 1.10,2013-04-11 20:57:00,
2013-04-11 17:12:00,35.1,19.0,29.96,East,80,9.0,13.0,52,0.00,,,0.00,weatherlink.com 1.10,2013-04-11 21:12:00,
2013-04-11 17:27:00,35.2,18.0,29.96,ENE,58,12.0,16.0,49,0.00,,,0.00,weatherlink.com 1.10,2013-04-11 21:27:00,
2013-04-11 17:42:00,35.3,19.0,29.96,ENE,65,8.0,11.0,51,0.00,,,0.00,weatherlink.com 1.10,2013-04-11 21:42:00,
2013-04-11 17:57:00,35.3,19.0,29.96,ENE,69,9.0,13.0,52,0.00,,,0.00,weatherlink.com 1.10,2013-04-11 21:57:00,
2013-04-11 18:12:00,35.3,19.0,29.98,East,79,7.0,11.0,52,0.00,,,0.00,weatherlink.com 1.10,2013-04-11 22:12:00,
2013-04-11 18:27:00,35.1,19.0,29.97,East,85,8.0,12.0,53,0.00,,,0.00,weatherlink.com 1.10,2013-04-11 22:27:00,
2013-04-11 18:42:00,34.9,19.0,29.98,East,90,4.0,11.0,53,0.00,,,0.00,weatherlink.com 1.10,2013-04-11 22:42:00,
2013-04-11 18:57:00,34.6,21.0,29.97,East,100,7.0,11.0,57,0.00,,,0.00,weatherlink.com 1.10,2013-04-11 22:57:00,
2013-04-11 19:12:00,34.4,21.0,29.95,ENE,57,9.0,9.0,59,0.00,,,0.00,weatherlink.com 1.10,2013-04-11 23:12:00,
2013-04-11 19:27:00,34.4,21.0,29.95,ENE,65,8.0,12.0,59,0.00,,,0.00,weatherlink.com 1.10,2013-04-11 23:27:00,
2013-04-11 19:42:00,34.3,22.0,29.93,ENE,58,9.0,12.0,61,0.00,,,0.00,weatherlink.com 1.10,2013-04-11 23:42:00,
2013-04-11 19:57:00,34.0,22.0,29.93,ENE,70,8.0,10.0,61,0.00,,,0.00,weatherlink.com 1.10,2013-04-11 23:57:00,
2013-04-11 20:12:00,34.2,21.0,29.93,East,83,5.0,10.0,60,0.00,,,0.00,weatherlink.com 1.10,2013-04-12 00:12:00,
2013-04-11 20:27:00,34.5,20.0,29.92,ENE,74,12.0,13.0,56,0.00,,,0.00,weatherlink.com 1.10,2013-04-12 00:27:00,
2013-04-11 20:42:00,34.9,18.0,29.92,ENE,67,13.0,15.0,50,0.00,,,0.00,weatherlink.com 1.10,2013-04-12 00:42:00,
2013-04-11 20:57:00,34.8,19.0,29.93,ENE,63,7.0,12.0,52,0.00,,,0.00,weatherlink.com 1.10,2013-04-12 00:57:00,
2013-04-11 21:13:00,34.7,19.0,29.93,ENE,65,12.0,14.0,52,0.00,,,0.00,weatherlink.com 1.10,2013-04-12 01:13:00,
2013-04-11 21:27:00,34.5,18.0,29.93,ENE,77,9.0,13.0,52,0.00,,,0.00,weatherlink.com 1.10,2013-04-12 01:27:00,
2013-04-11 21:42:00,34.3,18.0,29.93,East,100,18.0,22.0,51,0.00,,,0.00,weatherlink.com 1.10,2013-04-12 01:42:00,
2013-04-11 21:57:00,34.1,17.0,29.92,East,84,10.0,19.0,50,0.00,,,0.00,weatherlink.com 1.10,2013-04-12 01:57:00,
2013-04-11 22:12:00,34.0,19.0,29.92,East,82,12.0,22.0,54,0.00,,,0.00,weatherlink.com 1.10,2013-04-12 02:12:00,
2013-04-11 22:27:00,33.7,17.0,29.93,East,100,9.0,22.0,51,0.00,,,0.00,weatherlink.com 1.10,2013-04-12 02:27:00,
2013-04-11 22:42:00,32.9,19.0,29.92,ENE,70,19.0,28.0,56,0.00,,,0.00,weatherlink.com 1.10,2013-04-12 02:42:00,
2013-04-11 22:57:00,31.6,22.0,29.92,ENE,72,12.0,31.0,67,0.00,,,0.00,weatherlink.com 1.10,2013-04-12 02:57:00,
2013-04-11 23:12:00,29.8,24.0,29.92,ENE,68,14.0,19.0,78,0.00,,,0.00,weatherlink.com 1.10,2013-04-12 03:12:00,
2013-04-11 23:28:00,28.7,25.0,29.92,ENE,68,12.0,21.0,84,0.00,,,0.00,weatherlink.com 1.10,2013-04-12 03:28:00,
2013-04-11 23:43:00,28.0,25.0,29.91,NE,54,14.0,17.0,89,0.00,,,0.00,weatherlink.com 1.10,2013-04-12 03:43:00,
2013-04-11 23:58:00,27.8,25.0,29.91,NE,49,12.0,17.0,90,0.00,,,0.00,weatherlink.com 1.10,2013-04-12 03:58:00,